DW2806 Weather Reports


Display with metric or nautical units.
time (UTC)temp
F
wind
direction
speed
MPH
gust
MPH
rain 1hr
in
rain 24hr
in
rain mn
in
humidity
%
barometer
mb
20260902173041 69 330 0.0 5.0 0.00 0.00 0.00 88 1025.7
20260902171543 69 324 0.0 5.0 0.00 0.00 0.00 88 1025.7
20260902170039 69 324 0.0 5.0 0.00 0.00 0.00 89 1025.7
20260902164538 69 335 0.0 0.0 0.00 0.00 0.00 90 1025.7
20260902163038 69 335 0.0 2.0 0.00 0.00 0.00 89 1025.7
20260902161538 69 338 0.0 0.0 0.00 0.00 0.00 89 1025.7
20260902160040 69 315 0.0 0.0 0.00 0.00 0.00 90 1025.7
20260902154535 69 315 0.0 2.0 0.00 0.00 0.00 88 1025.7
20260902153039 69 315 0.0 0.0 0.00 0.00 0.00 91 1025.7
20260902151531 68 315 0.0 0.0 0.00 0.00 0.00 91 1025.7
20260902150029 68 315 0.0 0.0 0.00 0.00 0.00 92 1025.7
20260902144535 67 315 0.0 6.0 0.00 0.00 0.00 92 1025.7
20260902143029 67 337 0.0 4.0 0.00 0.00 0.00 93 1025.7
20260902141524 67 342 0.0 0.0 0.00 0.00 0.00 95 1025.7
20260902140022 66 348 0.0 4.0 0.00 0.00 0.00 95 1025.7
20260902134517 66 347 0.0 2.0 0.00 0.00 0.00 96 1025.7
20260902133015 66 348 0.0 0.0 0.00 0.00 0.00 95 1025.7
20260902131511 65 349 0.0 6.0 0.00 0.00 0.00 95 1025.7
20260902130110 65 291 0.0 0.0 0.00 0.00 0.00 95 1025.7
20260902124508 65 291 0.0 0.0 0.00 0.00 0.00 95 1025.7
20260902123008 65 291 0.0 0.0 0.00 0.00 0.00 96 1025.7
20260902121504 64 291 0.0 0.0 0.00 0.00 0.00 96 1025.7
20260902120002 64 291 0.0 0.0 0.00 0.00 0.00 96 1025.7
20260902114501 64 291 0.0 0.0 0.00 0.00 0.00 95 1025.7
20260902113000 64 291 0.0 0.0 0.00 0.00 0.00 95 1025.7
20260902111559 64 291 0.0 0.0 0.00 0.00 0.00 96 1025.7
20260902110106 64 291 0.0 0.0 0.00 0.00 0.00 96 1025.7
20260902104557 64 291 0.0 0.0 0.00 0.00 0.00 95 1025.7
20260902103055 63 290 0.0 0.0 0.00 0.00 0.00 95 1025.7
20260902101553 63 290 0.0 0.0 0.00 0.00 0.00 96 1025.7
20260902100104 63 290 0.0 0.0 0.00 0.00 0.00 95 1025.7
20260902094605 63 290 0.0 0.0 0.00 0.00 0.00 95 1025.7
20260902093051 63 290 0.0 0.0 0.00 0.00 0.00 95 1025.7
20260902091558 63 290 0.0 0.0 0.00 0.00 0.00 95 1025.7
20260902090049 62 290 0.0 0.0 0.00 0.00 0.00 95 1025.7
20260902084549 62 290 0.0 0.0 0.00 0.00 0.00 95 1025.7
20260902083053 62 290 0.0 0.0 0.00 0.00 0.00 95 1025.7
20260902081547 62 290 0.0 0.0 0.00 0.00 0.00 95 1025.7
20260902074546 62 290 0.0 0.0 0.00 0.00 0.00 95 1025.7
20260902073045 62 290 0.0 0.0 0.00 0.00 0.00 95 1025.7
20260902071544 62 290 0.0 0.0 0.00 0.00 0.00 95 1025.7
20260902070044 62 290 0.0 0.0 0.00 0.00 0.00 95 1025.7
20260902064603 62 290 0.0 0.0 0.00 0.00 0.00 95 1025.7
20260902063046 62 290 0.0 0.0 0.00 0.00 0.00 95 1025.7
20260902061553 62 290 0.0 0.0 0.00 0.00 0.00 95 1025.7
20260902060042 62 290 0.0 0.0 0.00 0.00 0.00 95 1025.7
20260902054542 62 290 0.0 0.0 0.00 0.00 0.00 95 1025.7
20260902053041 62 290 0.0 0.0 0.00 0.00 0.00 95 1025.7
20260902051541 62 290 0.0 0.0 0.00 0.00 0.00 95 1025.7
20260902050040 62 290 0.0 0.0 0.00 0.00 0.00 95 1025.7
20260902044539 62 290 0.0 0.0 0.00 0.00 0.00 95 1025.7
20260902043038 62 290 0.0 0.0 0.00 0.00 0.00 95 1025.7
20260902041537 62 290 0.0 0.0 0.00 0.00 0.00 94 1025.7
20260902040036 62 290 0.0 0.0 0.00 0.00 0.00 94 1025.7
20260902034542 62 290 0.0 0.0 0.00 0.00 0.00 94 1025.7
20260902033052 62 290 0.0 0.0 0.00 0.00 0.00 94 1025.7
20260902031533 63 290 0.0 0.0 0.00 0.00 0.00 94 1025.7
20260902030032 63 290 0.0 0.0 0.00 0.00 0.00 94 1025.7
20260902024537 63 290 0.0 0.0 0.00 0.00 0.00 94 1025.7
20260902023032 63 290 0.0 0.0 0.00 0.00 0.00 95 1025.7
20260902021530 63 290 0.0 0.0 0.00 0.00 0.00 94 1025.7
20260902020036 63 290 0.0 0.0 0.00 0.00 0.00 94 1025.7
20260902014533 63 290 0.0 0.0 0.00 0.00 0.00 94 1025.7
20260902013030 63 290 0.0 0.0 0.00 0.00 0.00 94 1025.7
20260902011529 63 290 0.0 0.0 0.00 0.00 0.00 94 1025.7
20260902010028 63 290 0.0 0.0 0.00 0.00 0.00 94 1025.7
20260902004528 63 290 0.0 0.0 0.00 0.00 0.00 94 1025.7
20260902003028 63 290 0.0 0.0 0.00 0.00 0.00 94 1025.7
20260902001526 64 290 0.0 0.0 0.00 0.00 0.00 94 1025.7
20260902000026 64 290 0.0 0.0 0.00 0.00 0.00 94 1025.7
20260901234525 64 290 0.0 0.0 0.00 0.00 0.00 94 1025.7
20260901233031 64 290 0.0 0.0 0.00 0.00 0.00 94 1025.7
20260901231524 64 290 0.0 0.0 0.00 0.00 0.00 94 1025.7
20260901230024 64 290 0.0 0.0 0.00 0.00 0.00 94 1025.7
20260901224534 64 290 0.0 0.0 0.00 0.00 0.00 94 1025.7
20260901223023 64 290 0.0 0.0 0.00 0.00 0.00 94 1025.7
20260901221522 64 290 0.0 0.0 0.00 0.00 0.00 94 1025.7
20260901220021 64 290 0.0 0.0 0.00 0.00 0.00 93 1025.7
20260901214520 65 290 0.0 0.0 0.00 0.00 0.00 93 1025.7
20260901213022 65 290 0.0 0.0 0.00 0.00 0.00 93 1025.7
20260901211526 64 290 0.0 0.0 0.00 0.00 0.00 93 1025.7
20260901210020 65 290 0.0 0.0 0.00 0.00 0.00 93 1025.7
20260901204519 65 290 0.0 0.0 0.00 0.00 0.00 93 1025.7
20260901203021 65 290 0.0 0.0 0.00 0.00 0.00 93 1025.7
20260901201518 66 290 0.0 2.0 0.00 0.00 0.00 93 1025.7
20260901200117 66 302 0.0 0.0 0.00 0.00 0.00 94 1025.7
20260901194516 67 301 0.0 0.0 0.00 0.00 0.00 94 1025.7
20260901193017 67 302 0.0 0.0 0.00 0.00 0.00 94 1025.7
20260901191516 67 302 0.0 0.0 0.00 0.00 0.00 94 1025.7
20260901190020 66 302 0.0 0.0 0.00 0.00 0.00 94 1025.7
20260901184514 66 302 0.0 0.0 0.00 0.00 0.00 94 1025.7
20260901183013 66 299 0.0 1.0 0.00 0.00 0.00 94 1025.7
20260901181524 65 248 0.0 0.0 0.00 0.00 0.00 94 1025.7
20260901180012 65 248 0.0 2.0 0.00 0.00 0.00 94 1025.7
20260901174511 65 118 0.0 0.0 0.00 0.00 0.00 94 1025.7